AI4TD Middleburg VA US current weather conditions

sailwx.info

Wind from 156

Air temperature 24.4° C
Dewpoint 21.0° C

Last reported at 2020-Aug-15 19:00 UTC.
Time now 2020-Aug-15 20:01 UTC

Location: N 39°03' W 077°44'.
View on Google Maps.

See reports from other nearby stations

  
Tides and Currents Weather Stations Pressure Air Temp Water Temp Dewpoint Dewpoint Depression Visibility Wind Speed Wind Dir Waves Ship Positions
date/time (UTC)wind fromknots sea level pressurealtimeterstation pressurevisibilityair tempwater tempwave heightnotes
2020-Aug-15 19:00 156 24.4
2020-Aug-15 18:45 130 24.4
2020-Aug-15 18:30 151 24.4
2020-Aug-15 18:15 161 24.4
2020-Aug-15 18:00 113 24.4
2020-Aug-15 17:45 141 23.9
2020-Aug-15 17:30 130 23.9
2020-Aug-15 17:15 070 23.9
2020-Aug-15 16:47 079 23.9
2020-Aug-15 16:31 127 23.9
2020-Aug-15 16:16 132 23.3
2020-Aug-15 16:02 173 23.3
2020-Aug-15 15:47 066 23.3
2020-Aug-15 15:31 077 23.3
2020-Aug-15 15:17 133 23.3
2020-Aug-15 15:01 116 22.8
2020-Aug-15 14:46 056 22.8
2020-Aug-15 14:33 141 22.8
2020-Aug-15 14:16 135 22.2
2020-Aug-15 14:01 135 22.2
2020-Aug-15 13:46 135 21.7
2020-Aug-15 13:31 135 21.7
2020-Aug-15 13:16 135 21.1
2020-Aug-15 13:01 135 21.1
2020-Aug-15 12:45 135 21.1
2020-Aug-15 12:31 135 21.1
2020-Aug-15 12:15 135 20.6
2020-Aug-15 12:00 136 20.6
2020-Aug-15 11:46 136 20.6
2020-Aug-15 11:32 136 20.6
2020-Aug-15 11:16 136 20.6
2020-Aug-15 11:00 136 20.6
2020-Aug-15 10:45 136 20.6
2020-Aug-15 10:30 135 20.0
2020-Aug-15 10:15 136 20.6
2020-Aug-15 10:01 136 20.6
2020-Aug-15 09:45 136 20.6
2020-Aug-15 09:31 135 20.6
2020-Aug-15 09:16 135 20.6
2020-Aug-15 09:00 135 20.6
2020-Aug-15 08:45 135 20.6
2020-Aug-15 08:30 136 20.6
2020-Aug-15 08:15 136 20.6
2020-Aug-15 08:00 136 20.6
2020-Aug-15 07:45 136 20.6
2020-Aug-15 07:30 136 20.6
2020-Aug-15 07:15 136 20.6
2020-Aug-15 07:00 135 20.6
2020-Aug-15 06:45 136 20.6
2020-Aug-15 06:30 135 20.6
2020-Aug-15 06:15 136 20.6
2020-Aug-15 06:00 135 20.6
2020-Aug-15 05:45 135 21.1
2020-Aug-15 05:30 135 21.1
2020-Aug-15 05:15 136 21.1
2020-Aug-15 05:00 135 21.1
2020-Aug-15 04:45 136 21.1
2020-Aug-15 04:30 136 21.1
2020-Aug-15 04:15 136 21.1
2020-Aug-15 04:02 135 21.1
2020-Aug-15 03:46 135 21.1
2020-Aug-15 03:31 136 21.1
2020-Aug-15 03:16 135 21.7
2020-Aug-15 03:03 136 21.7
2020-Aug-15 02:47 135 21.7
2020-Aug-15 02:33 084 22.2
2020-Aug-15 02:16 060 22.2
2020-Aug-15 02:02 124 22.2
2020-Aug-15 01:47 117 22.8
2020-Aug-15 01:31 111 22.8
2020-Aug-15 01:16 135 22.8
2020-Aug-15 01:02 211 22.8
2020-Aug-15 00:47 266 22.8
2020-Aug-15 00:32 266 22.8
2020-Aug-15 00:16 265 23.3
2020-Aug-14 23:46 265 23.3
2020-Aug-14 23:31 265 23.3
2020-Aug-14 23:17 265 23.3
2020-Aug-14 23:01 265 23.3
2020-Aug-14 22:47 266 23.3
2020-Aug-14 22:32 265 23.3
2020-Aug-14 22:17 266 23.3
2020-Aug-14 22:01 258 24.4
2020-Aug-14 21:45 133 0 gusting 8 28.3
2020-Aug-14 21:31 075 30.0
2020-Aug-14 21:16 134 29.4
2020-Aug-14 21:01 135 29.4
2020-Aug-14 20:46 117 0 gusting 4 30.0
2020-Aug-14 20:30 127 30.0
2020-Aug-14 20:16 056 30.0
2020-Aug-14 20:00 044 1 gusting 6 30.0
2020-Aug-14 19:45 114 0 gusting 5 30.0
2020-Aug-14 19:30 050 30.0
2020-Aug-14 19:15 039 29.4
2020-Aug-14 19:00 051 28.9
2020-Aug-14 18:45 088 28.3
2020-Aug-14 18:30 148 28.9
2020-Aug-14 18:15 122 28.9
2020-Aug-14 18:00 309 28.3
2020-Aug-14 17:45 054 28.3
2020-Aug-14 17:30 026 0 gusting 4 28.9
2020-Aug-14 17:15 122 28.3
2020-Aug-14 17:00 122 28.3
2020-Aug-14 16:45 091 27.8
2020-Aug-14 16:30 060 0 gusting 3 26.7
2020-Aug-14 16:15 118 26.7
2020-Aug-14 16:00 027 0 gusting 3 27.2
2020-Aug-14 15:45 140 26.7
2020-Aug-14 15:30 143 26.7
2020-Aug-14 15:15 181 26.1
2020-Aug-14 14:48 132 25.6
2020-Aug-14 14:31 102 25.6
2020-Aug-14 14:17 076 24.4
2020-Aug-14 14:02 087 24.4
2020-Aug-14 13:47 054 24.4
2020-Aug-14 13:31 167 24.4
2020-Aug-14 13:16 059 0 gusting 4 23.9
2020-Aug-14 13:01 066 23.9
2020-Aug-14 12:46 095 0 gusting 5 23.3
2020-Aug-14 12:31 139 23.9
2020-Aug-14 12:17 079 23.3
2020-Aug-14 12:01 068 22.8
2020-Aug-14 11:46 051 22.8
2020-Aug-14 11:32 050 22.8
2020-Aug-14 11:16 040 22.2
2020-Aug-14 11:00 055 0 gusting 2 22.2
2020-Aug-14 10:46 051 22.2
2020-Aug-14 10:30 051 22.2
2020-Aug-14 10:16 062 21.7
2020-Aug-14 10:01 063 21.7
2020-Aug-14 09:45 063 21.7
2020-Aug-14 09:30 063 21.7
2020-Aug-14 09:15 063 21.7
2020-Aug-14 09:00 063 21.1
2020-Aug-14 08:46 063 21.1
2020-Aug-14 08:30 063 21.1
2020-Aug-14 08:15 063 21.7
2020-Aug-14 08:01 063 21.7
2020-Aug-14 07:46 061 22.2
2020-Aug-14 07:30 062 22.2
2020-Aug-14 07:15 126 21.7
2020-Aug-14 07:00 126 21.7
2020-Aug-14 06:46 126 21.7
2020-Aug-14 06:30 126 21.7
2020-Aug-14 06:15 126 21.1
2020-Aug-14 06:00 126 21.7
2020-Aug-14 05:45 126 21.1
2020-Aug-14 05:30 126 21.1
2020-Aug-14 05:15 126 21.1
2020-Aug-14 05:00 126 21.1
2020-Aug-14 04:45 126 21.7
2020-Aug-14 04:30 126 21.7
2020-Aug-14 04:16 126 21.7
2020-Aug-14 04:01 126 21.1
2020-Aug-14 03:46 126 21.1
2020-Aug-14 03:32 126 21.1
2020-Aug-14 03:17 126 21.1
2020-Aug-14 03:01 126 21.1
2020-Aug-14 02:47 126 21.7
2020-Aug-14 02:31 126 21.7
2020-Aug-14 02:16 126 21.7
2020-Aug-14 02:01 126 21.7
2020-Aug-14 01:46 126 22.2
2020-Aug-14 01:31 126 22.2
2020-Aug-14 01:01 126 22.8
2020-Aug-14 00:46 126 23.3
2020-Aug-14 00:17 126 23.9
2020-Aug-14 00:01 114 25.0
2020-Aug-13 23:02 115 27.2
2020-Aug-13 22:47 177 27.8
2020-Aug-13 22:30 115 27.8
2020-Aug-13 22:16 135 0 gusting 3 29.4
2020-Aug-13 22:01 116 0 gusting 5 28.9
2020-Aug-13 21:45 147 28.9
2020-Aug-13 21:31 122 0 gusting 5 28.3
2020-Aug-13 21:17 141 0 gusting 5 28.9
2020-Aug-13 21:01 170 28.9
2020-Aug-13 20:46 053 27.8
2020-Aug-13 20:31 134 0 gusting 5 27.2
2020-Aug-13 20:16 133 27.2
2020-Aug-13 20:00 143 28.3